This demonstration page uses our WeatherBlox Daily Observations layout. Learn more.

Left ArrowRight Arrow

Hourly Observations for September 11, 2019

Temp ( °F °C ) Dew Point ( °F °C ) Humidity (%) Winds ( mph kmh ) Pressure ( in mb ) Visibility ( mi km ) Precip ( " mm )
1:51 am 01:51 Clear 76 24.4 59 15 56 56 E 5 7 29.80 1009 10 16 0.00 0.00
2:51 am 02:51 Clear 74 23.3 60 15.6 62 62 ENE 5 7 29.81 1010 10 16 0.00 0.00
3:51 am 03:51 Mostly Cloudy 74 23.3 60 15.6 62 62 E 9 15 29.82 1010 10 16 0.00 0.00
4:51 am 04:51 Clear 74 23.3 61 16.1 64 64 E 6 9 29.84 1011 10 16 0.00 0.00
5:51 am 05:51 Mostly Clear 73 22.8 62 16.7 69 69 E 8 13 29.86 1011 10 16 0.00 0.00
6:51 am 06:51 Sunny 74 23.3 62 16.7 67 67 E 9 15 29.88 1012 10 16 0.00 0.00
7:51 am 07:51 Partly Cloudy 78 25.6 62 16.7 58 58 ENE 7 11 29.90 1013 10 16 0.00 0.00
8:51 am 08:51 Partly Cloudy 80 26.7 62 16.7 54 54 ENE 8 13 29.91 1013 10 16 0.00 0.00
9:51 am 09:51 Sunny 82 27.8 61 16.1 49 49 VRB 6 9 29.90 1013 10 16 0.00 0.00
10:51 am 10:51 Sunny 86 30 60 15.6 42 42 E 7 11 29.89 1012 10 16 0.00 0.00
11:51 am 11:51 Cloudy 86 30 59 15 40 40 VRB 5 7 29.88 1012 10 16 0.00 0.00
12:51 pm 12:51 Mostly Cloudy 87 30.6 58 14.4 37 37 VRB 3 6 29.76 1008 10 16 0.00 0.00
1:51 pm 13:51 Mostly Sunny 92 33.3 57 13.9 31 31 N 8 13 29.80 1009 10 16 0.00 0.00
2:51 pm 14:51 Partly Cloudy 91 32.8 56 13.3 31 31 NW 7 11 29.78 1009 10 16 0.00 0.00
3:51 pm 15:51 Sunny 93 33.9 55 12.8 28 28 W 8 13 29.77 1008 10 16 0.00 0.00
4:51 pm 16:51 Sunny 92 33.3 55 12.8 29 29 WNW 13 20 29.76 1008 10 16 0.00 0.00
5:51 pm 17:51 Sunny 90 32.2 55 12.8 31 31 WNW 13 20 29.77 1008 10 16 0.00 0.00
6:51 pm 18:51 Clear 87 30.6 55 12.8 34 34 NW 16 26 29.78 1009 10 16 0.00 0.00
7:51 pm 19:51 Clear 85 29.4 54 12.2 35 35 NW 14 22 29.80 1009 10 16 0.00 0.00
8:51 pm 20:51 Clear 84 28.9 53 11.7 34 34 NW 12 19 29.83 1010 10 16 0.00 0.00
9:51 pm 21:51 Clear 80 26.7 53 11.7 39 39 WNW 10 17 29.85 1011 10 16 0.00 0.00
10:51 pm 22:51 Clear 78 25.6 53 11.7 42 42 WNW 10 17 29.87 1012 10 16 0.00 0.00
11:51 pm 23:51 Clear 76 24.4 54 12.2 47 47 W 10 17 29.88 1012 10 16 0.00 0.00

Powered by AerisWeather